Location: Siloam Springs
(36.1881°N, 94.5403°W)
Time: 03:14:45
(UTC-06:00)

Hubble Space Telescope - Visible Passes

Search period start: 28 February 2024 00:00
Search period end: 09 March 2024 00:00
Orbit: 516 x 519 km, 28.5° (Epoch: 27 February)

Date Brightness Start Highest point End Pass type
(mag) Time Alt. Az. Time Alt. Az. Time Alt. Az.
28 Feb 2.1 19:13:48 10° WSW 19:17:12 27° S 19:19:22 17° SE visible
29 Feb 2.2 18:56:20 10° WSW 18:59:44 27° S 19:03:00 11° ESE visible
29 Feb 3.4 20:37:02 10° WSW 20:37:54 14° SW 20:37:54 14° SW visible
01 Mar 2.3 18:38:51 10° WSW 18:42:15 27° S 18:45:40 10° SE visible
01 Mar 3.0 20:19:43 10° WSW 20:21:34 17° SSW 20:21:34 17° SSW visible
02 Mar 2.9 20:02:25 10° SW 20:04:56 16° SSW 20:05:14 16° S visible
03 Mar 3.0 19:45:09 10° SW 19:47:25 15° SSW 19:48:57 12° S visible
04 Mar 3.2 19:27:58 10° SW 19:29:52 13° SSW 19:31:46 10° S visible
05 Mar 3.3 19:10:56 10° SW 19:12:19 12° SSW 19:13:42 10° S visible
